User: anonymous   Login
Location: Unspecified
(0.0000°N, 0.0000°E)
Time: 12:37:50
(UTC+00:00)
Language:

FREEDOM - Orbit

View from above orbital plane
View from above orbital plane
View from above satellite
View from above satellite

Ground track
Ground track

The orbit data is extracted from the following two-line orbital elements,

1 41932U 98067KU  18114.74327458 +.00029199 +00000-0 +21214-3 0  9997
2 41932 051.6354 255.5896 0004252 342.6730 017.4123 15.73109071072341
Epoch (UTC): 24 April 2018 17:50:18
Eccentricity: 0.0004252
inclination: 51.6354°
perigee height: 347 km
apogee height: 353 km
right ascension of ascending node: 255.5896°
argument of perigee: 342.6730°
revolutions per day: 15.73109071
mean anomaly at epoch: 17.4123°
orbit number at epoch: 7234

The dashed part of the orbit path shows where the satellite is in the earth's shadow,  

DLR